Location: ????????
(55.4717°N, 39.1821°E)
Time: 09:04:36
(UTC+00:00)

Thor Agena Rocket - Pass Details

Date: 14 April 2024
Orbit: 757 x 805 km, 99.1° (Epoch: 19 May)

Event Time Altitude Azimuth Distance (km) Brightness Sun altitude
Rises 01:15:35 0° 17° (NNE) 3,235 7.6 -9.2°
Reaches altitude 10° 01:17:54 10° 19° (NNE) 2,302 6.8 -8.9°
Maximum altitude 01:22:58 79° 106° (ESE) 779 3.7 -8.3°
Drops below altitude 10° 01:28:00 10° 194° (SSW) 2,286 5.6 -7.7°
Sets 01:30:18 0° 195° (SSW) 3,211 6.3 -7.4°
